Find Starlink 31152

NORAD ID: 58734 Int'l Des: 2024-005 Owner: SPXS Country: US Constellation: starlink operational
LEOCIRCULAR

当前视图

正在加载3D地球...

About Starlink 31152

Starlink 31152 (NORAD 58734) is a starlink constellation satellite (v2 mini) launched Jan 7, 2024 by SPXS of US. It operates in LEO, CIRCULAR orbit with a mass of 730.00 kg.

关于 Starlink 31152

正在加载描述...

即将过境

Passes for default location (London). Set your location on the main map for personalized predictions.

高度历史

Loading altitude history...

两行轨道根数

1 58734U 24005G 26166.87718874 .00000199 00000-0 16760-4 0 9992
2 58734 43.0035 24.9451 0001839 268.0687 91.9954 15.27576440135464
Epoch: Jun 15, 2026 • Age: 25 hours

当前状态

高度 489.1 km
速度 7.62 km/s
星下点 -26.62°S, 3.02°E
发射日期 Jan 7, 2024
运行时间 2.4 years
类型 internet

技术详情

分类 Payload
质量 730.00 kg
干质量 700.00 kg
总质量 730.00 kg
长度 0.30 m
直径 4.10 m
跨度 29.00 m
形状 Box + pan
制造商 SPXS
平台类型 Starlink V2M
阶段状态 In Orbit
所有者/国家 SPXS/US

Most Searched